Concord, NH

5:52 PM EDT on August 16, 2017 (GMT -0400)
Concord Municipal

Weather History for KCON - February, 2014

Change the Weather History Date:

Wednesday, February 26, 2014

  Actual Average Record
Temperature  
Mean Temperature 12 °F 27 °F  
Max Temperature 25 °F 38 °F 66 °F (1957)
Min Temperature -1 °F 17 °F -15 °F (1950)
Degree Days  
Heating Degree Days 53 38  
Month to date heating degree days 1164 1063  
Since 1 July heating degree days 5361 5185  
Cooling Degree Days 0 0  
Month to date cooling degree days 0 0  
Year to date cooling degree days 0 0  
Moisture  
Dew Point 1 °F    
Average Humidity 63    
Maximum Humidity 91    
Minimum Humidity 35    
Precipitation  
Precipitation T in 0.11 in 1.15 in (1979)
Month to date precipitation 4.10 2.42  
Year to date precipitation 7.31 5.12  
Snow  
Snow T in 0.40 in 10.60 in (1934)
Month to date snowfall 37.7 11.5  
Since 1 July snowfall 72.2 46.7  
Snow Depth 21.00 in    
Sea Level Pressure  
Sea Level Pressure 29.84 in    
Wind  
Wind Speed 6 mph (West)    
Max Wind Speed 23 mph    
Max Gust Speed 32 mph    
Visibility 9 miles    
Events Fog    
T = Trace of Precipitation, MM = Missing Value Source: NWS Daily Summary

Daily Weather History Graph

Daily Weather History Graph

Search for Another Location

Airport or City:

Trip Planner

Search our weather history database for the weather conditions in past years. The results will help you decide how hot, cold, wet, or windy it might be!

Date:

Astronomy

Feb. 26, 2014 Rise Set
Actual Time 6:27 AM EST 5:31 PM EST
Civil Twilight 5:58 AM EST 6:00 PM EST
Nautical Twilight 5:25 AM EST 6:33 PM EST
Astronomical Twilight 4:52 AM EST 7:06 PM EST
Moon 4:14 AM EST (2/26) 2:39 PM EST (2/26)
Length of Visible Light 12h 01m
Length of Day
11h 04m
Waning Crescent, 10% of the Moon is Illuminated
Feb 26
Waning Crescent
Mar 1
New
Mar 8
First Quarter
Mar 16
Full
Mar 23
Last Quarter

Hourly Weather History & Observations

Time (EST) Temp. Windchill Dew Point Humidity Pressure Visibility Wind Dir Wind Speed Gust Speed Precip Events Conditions
12:51 AM 8.1 °F - 3.9 °F 83% 29.91 in 10.0 mi Calm Calm - N/A   Clear
1:51 AM 5.0 °F - 1.9 °F 87% 29.91 in 10.0 mi Calm Calm - N/A   Clear
2:51 AM 3.9 °F - -0.0 °F 84% 29.91 in 10.0 mi Calm Calm - N/A   Clear
3:51 AM 3.0 °F -4.4 °F -0.0 °F 87% 29.90 in 10.0 mi East 3.5 mph - N/A   Mostly Cloudy
4:51 AM -0.0 °F - -2.9 °F 88% 29.88 in 10.0 mi Calm Calm - N/A   Partly Cloudy
5:51 AM 3.0 °F - -0.9 °F 84% 29.87 in 10.0 mi Calm Calm - N/A   Overcast
6:51 AM 5.0 °F -2.1 °F 1.9 °F 87% 29.86 in 10.0 mi SSE 3.5 mph - N/A   Overcast
7:36 AM 5.0 °F - 1.0 °F 84% 29.83 in 1.2 mi Calm Calm - N/A   Mostly Cloudy
7:43 AM 6.1 °F - 3.0 °F 87% 29.83 in 0.5 mi Calm Calm - N/A Fog Light Freezing Fog
7:48 AM 6.8 °F - 3.2 °F 85% 29.83 in 2.0 mi Calm Calm - N/A   Partly Cloudy
7:51 AM 6.1 °F - 3.0 °F 87% 29.86 in 3.0 mi Calm Calm - N/A   Partly Cloudy
8:51 AM 9.0 °F - 6.1 °F 88% 29.85 in 10.0 mi Calm Calm - N/A   Mostly Cloudy
9:51 AM 16.0 °F 10.4 °F 8.1 °F 71% 29.83 in 10.0 mi Variable 3.5 mph - N/A   Clear
10:51 AM 21.9 °F 12.5 °F 6.1 °F 51% 29.81 in 10.0 mi SSW 8.1 mph - N/A   Clear
11:51 AM 21.9 °F 9.2 °F 5.0 °F 48% 29.79 in 10.0 mi WSW 13.8 mph 21.9 mph N/A   Mostly Cloudy
12:51 PM 23.0 °F 10.1 °F 9.0 °F 55% 29.77 in 9.0 mi WSW 15.0 mph 21.9 mph 0.00 in   Overcast
1:51 PM 23.0 °F 7.6 °F 6.1 °F 48% 29.76 in 10.0 mi WNW 21.9 mph 32.2 mph N/A   Scattered Clouds
2:51 PM 23.0 °F 9.2 °F -0.0 °F 37% 29.77 in 10.0 mi West 17.3 mph 25.3 mph N/A   Partly Cloudy
3:51 PM 21.9 °F 8.2 °F -2.9 °F 34% 29.78 in 10.0 mi West 16.1 mph 25.3 mph N/A   Clear
4:51 PM 19.9 °F 7.3 °F -4.0 °F 35% 29.81 in 10.0 mi West 12.7 mph 20.7 mph N/A   Partly Cloudy
5:51 PM 17.1 °F 5.8 °F -5.1 °F 37% 29.83 in 10.0 mi West 9.2 mph 19.6 mph N/A   Partly Cloudy
6:51 PM 15.1 °F 4.2 °F -2.9 °F 45% 29.85 in 10.0 mi WNW 8.1 mph - N/A   Clear
7:51 PM 12.9 °F 6.9 °F -2.9 °F 49% 29.86 in 10.0 mi WNW 3.5 mph - N/A   Clear
8:51 PM 12.0 °F 1.5 °F -4.0 °F 49% 29.86 in 10.0 mi WNW 6.9 mph - N/A   Clear
9:51 PM 10.9 °F 1.4 °F -6.0 °F 47% 29.84 in 10.0 mi NNW 5.8 mph - N/A   Clear
10:51 PM 5.0 °F - -5.1 °F 63% 29.86 in 10.0 mi Calm Calm - N/A   Clear
11:51 PM 3.0 °F -4.4 °F -4.0 °F 73% 29.86 in 10.0 mi ESE 3.5 mph - N/A   Clear